• Em Portugal
  • Lista de países
  • Para 7 dias
  • Temperatura da água
  • Mapas de satélite
  • Mapa do tempo
  • Widgets de tempo
  • user-avatar
    Iniciar Sessão

    Previsão horária em Querns

    Hoje, 23 Outubro, Terça-feira

    Tempo Temperatura Precipitação Vento Pressão Humidade
    00:00 +26°C° 0 mm 1 m/s 758 mmHg 92%
    01:00 +26°C° 0 mm 2 m/s 758 mmHg 92%
    02:00 +26°C° 0 mm 1 m/s 758 mmHg 93%
    03:00 +26°C° 0 mm 1 m/s 758 mmHg 93%
    04:00 +26°C° 0 mm 1 m/s 758 mmHg 93%
    05:00 +26°C° 0 mm 1 m/s 758 mmHg 93%
    06:00 +26°C° 0 mm 1 m/s 759 mmHg 92%
    07:00 +26°C° 0 mm 1 m/s 759 mmHg 92%
    08:00 +29°C° 0 mm 2 m/s 759 mmHg 78%
    09:00 +31°C° 0 mm 2 m/s 759 mmHg 66%
    10:00 +34°C° 0 mm 2 m/s 759 mmHg 54%
    11:00 +35°C° 0 mm 3 m/s 759 mmHg 49%
    12:00 +36°C° 0 mm 3 m/s 758 mmHg 45%
    13:00 +37°C° 0 mm 3 m/s 758 mmHg 41%
    14:00 +36°C° 0.1 mm 3 m/s 758 mmHg 45%
    15:00 +35°C° 0.1 mm 3 m/s 757 mmHg 50%
    16:00 +34°C° 0.1 mm 4 m/s 757 mmHg 55%
    17:00 +31°C° 0.1 mm 3 m/s 758 mmHg 65%
    18:00 +29°C° 0.1 mm 3 m/s 758 mmHg 75%
    19:00 +27°C° 0.1 mm 2 m/s 759 mmHg 85%
    20:00 +26°C° 0 mm 2 m/s 759 mmHg 89%
    21:00 +26°C° 0 mm 2 m/s 759 mmHg 92%
    22:00 +25°C° 0 mm 2 m/s 760 mmHg 95%
    23:00 +25°C° 0 mm 2 m/s 760 mmHg 95%

    Amanhã, 24 Outubro, Quarta-feira

    Tempo Temperatura Precipitação Vento Pressão Humidade
    00:00 +25°C° 0 mm 2 m/s 760 mmHg 96%
    01:00 +24°C° 0 mm 2 m/s 759 mmHg 96%
    02:00 +24°C° 0 mm 2 m/s 759 mmHg 96%
    03:00 +24°C° 0 mm 2 m/s 759 mmHg 96%
    04:00 +24°C° 0 mm 2 m/s 759 mmHg 96%
    05:00 +25°C° 0 mm 2 m/s 760 mmHg 94%
    06:00 +25°C° 0 mm 3 m/s 760 mmHg 91%
    07:00 +26°C° 0 mm 3 m/s 761 mmHg 89%
    08:00 +28°C° 0 mm 3 m/s 761 mmHg 76%
    09:00 +31°C° 0 mm 3 m/s 761 mmHg 63%
    10:00 +34°C° 0 mm 3 m/s 761 mmHg 50%
    11:00 +35°C° 0 mm 3 m/s 760 mmHg 46%
    12:00 +36°C° 0 mm 4 m/s 760 mmHg 41%
    13:00 +37°C° 0 mm 4 m/s 759 mmHg 37%
    14:00 +36°C° 0 mm 4 m/s 759 mmHg 39%
    15:00 +35°C° 0 mm 4 m/s 758 mmHg 41%
    16:00 +35°C° 0 mm 4 m/s 758 mmHg 42%
    17:00 +32°C° 0 mm 4 m/s 758 mmHg 54%
    18:00 +29°C° 0 mm 4 m/s 759 mmHg 66%
    19:00 +27°C° 0 mm 4 m/s 759 mmHg 78%
    20:00 +26°C° 0 mm 3 m/s 760 mmHg 83%
    21:00 +25°C° 0 mm 3 m/s 761 mmHg 88%
    22:00 +25°C° 0 mm 3 m/s 761 mmHg 93%
    23:00 +24°C° 0 mm 3 m/s 761 mmHg 93%

    Depois de amanhã, 25 Outubro, Quinta-feira

    Tempo Temperatura Precipitação Vento Pressão Humidade
    00:00 +24°C° 0 mm 3 m/s 760 mmHg 94%
    01:00 +24°C° 0 mm 3 m/s 760 mmHg 94%
    02:00 +24°C° 0 mm 3 m/s 760 mmHg 94%
    03:00 +22°C° 0 mm 3 m/s 760 mmHg 95%
    04:00 +22°C° 0 mm 4 m/s 760 mmHg 95%
    05:00 +23°C° 0 mm 4 m/s 760 mmHg 88%
    06:00 +25°C° 0 mm 4 m/s 761 mmHg 81%
    07:00 +25°C° 0 mm 4 m/s 761 mmHg 74%
    08:00 +28°C° 0 mm 5 m/s 761 mmHg 63%
    09:00 +30°C° 0 mm 5 m/s 761 mmHg 52%
    10:00 +33°C° 0 mm 6 m/s 761 mmHg 41%
    11:00 +34°C° 0 mm 6 m/s 761 mmHg 37%
    12:00 +35°C° 0 mm 6 m/s 761 mmHg 34%
    13:00 +36°C° 0 mm 6 m/s 760 mmHg 31%
    14:00 +35°C° 0 mm 6 m/s 760 mmHg 32%
    15:00 +34°C° 0 mm 6 m/s 759 mmHg 33%
    16:00 +34°C° 0 mm 6 m/s 759 mmHg 34%
    17:00 +30°C° 0 mm 6 m/s 759 mmHg 45%
    18:00 +28°C° 0 mm 5 m/s 760 mmHg 55%
    19:00 +25°C° 0 mm 5 m/s 761 mmHg 66%
    20:00 +25°C° 0 mm 5 m/s 761 mmHg 74%
    21:00 +23°C° 0 mm 5 m/s 762 mmHg 81%
    22:00 +22°C° 0 mm 4 m/s 762 mmHg 89%
    23:00 +22°C° 0 mm 4 m/s 762 mmHg 91%

    26 Outubro, Sexta-feira

    Tempo Temperatura Precipitação Vento Pressão Humidade
    00:00 +22°C° 0 mm 4 m/s 761 mmHg 92%
    01:00 +22°C° 0 mm 4 m/s 761 mmHg 94%
    02:00 +22°C° 0 mm 5 m/s 761 mmHg 92%
    03:00 +23°C° 0 mm 5 m/s 760 mmHg 91%
    04:00 +23°C° 0 mm 5 m/s 760 mmHg 89%
    05:00 +23°C° 0 mm 5 m/s 761 mmHg 87%
    06:00 +25°C° 0 mm 5 m/s 761 mmHg 84%
    07:00 +24°C° 0 mm 6 m/s 762 mmHg 82%
    08:00 +27°C° 0 mm 6 m/s 762 mmHg 71%
    09:00 +30°C° 0 mm 6 m/s 762 mmHg 60%
    10:00 +33°C° 0 mm 5 m/s 762 mmHg 50%
    11:00 +34°C° 0 mm 5 m/s 761 mmHg 43%
    12:00 +35°C° 0 mm 5 m/s 761 mmHg 36%
    13:00 +36°C° 0 mm 5 m/s 760 mmHg 30%
    14:00 +36°C° 0 mm 5 m/s 760 mmHg 30%
    15:00 +36°C° 0 mm 5 m/s 759 mmHg 30%
    16:00 +35°C° 0 mm 5 m/s 759 mmHg 30%
    17:00 +32°C° 0 mm 5 m/s 759 mmHg 42%
    18:00 +29°C° 0 mm 4 m/s 760 mmHg 53%
    19:00 +26°C° 0 mm 4 m/s 760 mmHg 65%
    20:00 +25°C° 0 mm 4 m/s 761 mmHg 72%
    21:00 +24°C° 0 mm 3 m/s 761 mmHg 78%
    22:00 +22°C° 0 mm 3 m/s 762 mmHg 84%
    23:00 +22°C° 0 mm 3 m/s 761 mmHg 84%

    27 Outubro, Sábado

    Tempo Temperatura Precipitação Vento Pressão Humidade
    00:00 +22°C° 0 mm 3 m/s 760 mmHg 83%
    01:00 +21°C° 0 mm 3 m/s 760 mmHg 82%
    02:00 +21°C° 0 mm 3 m/s 760 mmHg 82%
    03:00 +21°C° 0 mm 3 m/s 759 mmHg 81%
    04:00 +21°C° 0 mm 3 m/s 759 mmHg 80%
    05:00 +22°C° 0 mm 3 m/s 759 mmHg 76%
    06:00 +24°C° 0 mm 3 m/s 760 mmHg 73%
    07:00 +25°C° 0 mm 3 m/s 760 mmHg 69%
    08:00 +28°C° 0 mm 3 m/s 760 mmHg 58%
    09:00 +31°C° 0 mm 3 m/s 760 mmHg 47%
    10:00 +35°C° 0 mm 3 m/s 760 mmHg 36%
    11:00 +36°C° 0 mm 3 m/s 759 mmHg 32%
    12:00 +37°C° 0 mm 3 m/s 759 mmHg 29%
    13:00 +38°C° 0 mm 4 m/s 758 mmHg 25%
    14:00 +37°C° 0 mm 4 m/s 758 mmHg 26%
    15:00 +37°C° 0 mm 4 m/s 758 mmHg 26%
    16:00 +36°C° 0 mm 3 m/s 757 mmHg 27%
    17:00 +34°C° 0 mm 3 m/s 758 mmHg 38%
    18:00 +30°C° 0 mm 2 m/s 758 mmHg 49%
    19:00 +27°C° 0 mm 2 m/s 759 mmHg 59%
    20:00 +26°C° 0 mm 1 m/s 759 mmHg 65%
    21:00 +25°C° 0 mm 1 m/s 759 mmHg 70%
    22:00 +24°C° 0 mm 1 m/s 760 mmHg 75%
    23:00 +24°C° 0 mm 1 m/s 759 mmHg 73%

    28 Outubro, Domingo

    Tempo Temperatura Precipitação Vento Pressão Humidade
    00:00 +24°C° 0 mm 1 m/s 759 mmHg 72%
    01:00 +23°C° 0 mm 1 m/s 758 mmHg 70%
    02:00 +23°C° 0 mm 1 m/s 758 mmHg 68%
    03:00 +23°C° 0 mm 1 m/s 758 mmHg 67%
    04:00 +23°C° 0 mm 1 m/s 758 mmHg 65%
    05:00 +24°C° 0 mm 1 m/s 758 mmHg 63%
    06:00 +25°C° 0 mm 1 m/s 759 mmHg 60%
    07:00 +26°C° 0 mm 1 m/s 759 mmHg 58%
    08:00 +29°C° 0 mm 1 m/s 759 mmHg 50%
    09:00 +32°C° 0 mm 2 m/s 759 mmHg 42%
    10:00 +35°C° 0 mm 2 m/s 759 mmHg 33%
    11:00 +36°C° 0 mm 2 m/s 758 mmHg 30%
    12:00 +37°C° 0 mm 3 m/s 757 mmHg 28%
    13:00 +38°C° 0 mm 3 m/s 757 mmHg 25%
    14:00 +38°C° 0 mm 3 m/s 757 mmHg 26%
    15:00 +37°C° 0 mm 3 m/s 756 mmHg 27%
    16:00 +36°C° 0 mm 3 m/s 756 mmHg 28%
    17:00 +34°C° 0 mm 2 m/s 756 mmHg 40%
    18:00 +30°C° 0 mm 2 m/s 757 mmHg 53%
    19:00 +27°C° 0 mm 1 m/s 758 mmHg 65%
    20:00 +26°C° 0 mm 1 m/s 758 mmHg 67%
    21:00 +25°C° 0 mm 1 m/s 758 mmHg 70%
    22:00 +24°C° 0 mm 1 m/s 759 mmHg 73%
    23:00 +24°C° 0 mm 1 m/s 758 mmHg 68%

    29 Outubro, Segunda-feira

    Tempo Temperatura Precipitação Vento Pressão Humidade
    00:00 +24°C° 0 mm 1 m/s 758 mmHg 62%
    01:00 +24°C° 0 mm 1 m/s 757 mmHg 57%
    02:00 +24°C° 0 mm 1 m/s 757 mmHg 57%
    03:00 +23°C° 0 mm 1 m/s 757 mmHg 57%
    04:00 +23°C° 0 mm 1 m/s 757 mmHg 57%
    05:00 +24°C° 0 mm 1 m/s 758 mmHg 53%
    06:00 +25°C° 0 mm 1 m/s 758 mmHg 49%
    07:00 +26°C° 0 mm 1 m/s 759 mmHg 45%
    08:00 +30°C° 0 mm 1 m/s 759 mmHg 37%
    09:00 +34°C° 0 mm 2 m/s 759 mmHg 29%
    10:00 +38°C° 0 mm 2 m/s 759 mmHg 21%
    11:00 +39°C° 0 mm 2 m/s 758 mmHg 20%
    12:00 +40°C° 0 mm 3 m/s 757 mmHg 19%
    13:00 +42°C° 0 mm 3 m/s 756 mmHg 17%
    14:00 +40°C° 0 mm 3 m/s 756 mmHg 21%
    15:00 +39°C° 0 mm 3 m/s 756 mmHg 24%
    16:00 +38°C° 0 mm 4 m/s 756 mmHg 27%
    17:00 +36°C° 0 mm 3 m/s 756 mmHg 39%
    18:00 +33°C° 0 mm 3 m/s 757 mmHg 52%
    19:00 +29°C° 0 mm 2 m/s 758 mmHg 64%
    20:00 +28°C° 0 mm 2 m/s 758 mmHg 68%
    21:00 +28°C° 0 mm 2 m/s 758 mmHg 73%
    22:00 +27°C° 0 mm 2 m/s 759 mmHg 77%
    23:00 +27°C° 0 mm 1 m/s 758 mmHg 77%
    Mostrar mais